Papa, Hungary

2:49 AM CEST on September 24, 2017 (GMT +0200)
Papa

Weather History for LHPA - November, 2012

Change the Weather History Date:

Thursday, November 29, 2012

  Actual Average Record
Temperature  
Mean Temperature 49 °F -  
Max Temperature 57 °F - - ()
Min Temperature 41 °F - - ()
Degree Days  
Heating Degree Days 16    
Moisture  
Dew Point 45 °F    
Average Humidity 83    
Maximum Humidity 100    
Minimum Humidity 63    
Precipitation  
Precipitation 0.00 in - - ()
Sea Level Pressure  
Sea Level Pressure 29.34 in    
Wind  
Wind Speed 11 mph ()    
Max Wind Speed 20 mph    
Max Gust Speed 27 mph    
Visibility 5.9 miles    
Events Rain    
T = Trace of Precipitation, MM = Missing Value Source: Averaged Metar Reports

Daily Weather History Graph

Daily Weather History Graph

Search for Another Location

Airport or City:

Trip Planner

Search our weather history database for the weather conditions in past years. The results will help you decide how hot, cold, wet, or windy it might be!

Date:

Astronomy

Nov. 29, 2012 Rise Set
Actual Time 7:13 AM CET 4:03 PM CET
Civil Twilight 6:38 AM CET 4:37 PM CET
Nautical Twilight 6:00 AM CET 5:15 PM CET
Astronomical Twilight 5:23 AM CET 5:52 PM CET
Moon 4:50 PM CET (11/29) 7:46 AM CET (11/29)
Length of Visible Light 9h 58m
Length of Day
8h 49m
Full, 99% of the Moon is Illuminated
Nov 29
Full
Dec 6
Last Quarter
Dec 13
New
Dec 20
First Quarter
Dec 28
Full

Hourly Weather History & Observations

Time (CET) Temp. Windchill Dew Point Humidity Pressure Visibility Wind Dir Wind Speed Gust Speed Precip Events Conditions
12:15 AM 51.8 °F - 50.0 °F 94% 29.36 in 5.0 mi SSE 13.4 mph - N/A Rain Light Rain
12:45 AM 53.6 °F - 50.0 °F 88% 29.30 in 6.2 mi SSE 15.7 mph - N/A Rain Light Rain
12:51 AM 53.6 °F - 50.0 °F 88% 29.33 in - SE 13.4 mph - N/A   Clear
1:15 AM 53.6 °F - 50.0 °F 88% 29.30 in - SE 17.9 mph - N/A   Clear
2:15 AM 55.4 °F - 48.2 °F 77% 29.30 in - SSE 17.9 mph - N/A   Clear
2:45 AM 53.6 °F - 48.2 °F 82% 29.30 in - SSE 13.4 mph - N/A   Clear
3:15 AM 53.6 °F - 48.2 °F 82% 29.27 in - SSE 15.7 mph - N/A   Clear
3:20 AM 53.6 °F - 48.2 °F 82% 29.27 in - SSE 20.1 mph - N/A   Clear
3:45 AM 51.8 °F - 48.2 °F 88% 29.27 in - SSE 15.7 mph 26.8 mph N/A   Clear
4:15 AM 51.8 °F - 48.2 °F 88% 29.30 in - SSE 15.7 mph - N/A   Clear
4:45 AM 50.0 °F - 48.2 °F 94% 29.30 in - SSE 15.7 mph - N/A   Clear
5:15 AM 50.0 °F - 48.2 °F 94% 29.30 in 6.2 mi WSW 8.9 mph - N/A   Mostly Cloudy
5:45 AM - - - N/A% - 5.0 mi SSW 11.2 mph - N/A Rain Light Rain
6:15 AM 46.4 °F 44.4 °F 46.4 °F 100% 29.30 in 5.0 mi South 4.5 mph - N/A   Partly Cloudy
7:15 AM 50.0 °F - 46.4 °F 87% 29.30 in 6.2 mi SSW 6.7 mph - N/A   Partly Cloudy
7:45 AM 50.0 °F - 46.4 °F 87% 29.30 in 6.2 mi South 6.7 mph - N/A   Partly Cloudy
8:15 AM 50.0 °F - 48.2 °F 94% 29.27 in 6.2 mi South 8.9 mph - N/A   Partly Cloudy
8:45 AM - - - N/A% - 5.0 mi South 11.2 mph - N/A Rain Light Rain
9:15 AM 53.6 °F - 48.2 °F 82% 29.30 in 6.2 mi South 13.4 mph - N/A   Partly Cloudy
9:45 AM 55.4 °F - 48.2 °F 77% 29.30 in 6.2 mi South 11.2 mph 22.4 mph N/A   Partly Cloudy
10:15 AM 55.4 °F - 46.4 °F 72% 29.30 in 6.2 mi South 15.7 mph - N/A   Partly Cloudy
10:45 AM 55.4 °F - 48.2 °F 77% 29.27 in 6.2 mi South 13.4 mph 24.6 mph N/A   Partly Cloudy
11:15 AM 57.2 °F - 46.4 °F 67% 29.27 in 6.2 mi SSW 13.4 mph - N/A   Scattered Clouds
11:45 AM - - - N/A% - 6.2 mi South 11.2 mph - N/A   Mostly Cloudy
12:15 PM 57.2 °F - 44.6 °F 63% 29.27 in 6.2 mi South 15.7 mph - N/A   Mostly Cloudy
12:45 PM 55.4 °F - 44.6 °F 67% 29.27 in 6.2 mi South 15.7 mph - N/A   Scattered Clouds
1:15 PM 55.4 °F - 44.6 °F 67% 29.30 in 6.2 mi SSW 13.4 mph - N/A   Scattered Clouds
1:45 PM 53.6 °F - 44.6 °F 72% 29.30 in 6.2 mi SSW 13.4 mph - N/A   Mostly Cloudy
2:15 PM 53.6 °F - 42.8 °F 67% 29.30 in 6.2 mi SSW 11.2 mph - N/A   Mostly Cloudy
2:35 PM 53.6 °F - 44.6 °F 72% 29.30 in 6.2 mi South 13.4 mph 24.6 mph N/A Rain Light Rain
2:45 PM - - - N/A% - 6.2 mi SSW 11.2 mph - N/A   Overcast
3:15 PM 51.8 °F - 44.6 °F 76% 29.30 in 6.2 mi South 6.7 mph - N/A Rain Light Rain
3:19 PM 51.8 °F - 44.6 °F 76% 29.30 in 6.2 mi South 6.7 mph - N/A   Mostly Cloudy
3:45 PM 50.0 °F - 46.4 °F 87% 29.33 in 6.2 mi South 6.7 mph - N/A   Mostly Cloudy
4:15 PM 50.0 °F - 46.4 °F 87% 29.33 in 6.2 mi NW 2.2 mph - N/A   Overcast
4:25 PM 48.2 °F - 41.0 °F 76% 29.36 in 6.2 mi NNW 8.9 mph - N/A Rain Light Rain Showers
4:30 PM 46.4 °F 39.9 °F 41.0 °F 81% 29.36 in 6.2 mi NNW 15.7 mph 26.8 mph N/A Rain Light Rain Showers
4:45 PM 44.6 °F 38.2 °F 41.0 °F 87% 29.36 in 6.2 mi NNW 13.4 mph 26.8 mph N/A Rain Light Rain Showers
5:15 PM 42.8 °F 36.7 °F 39.2 °F 87% 29.39 in 6.2 mi NNE 11.2 mph - N/A Rain Light Rain Showers
5:45 PM - - - N/A% - 6.2 mi North 11.2 mph - N/A   Overcast
6:15 PM 42.8 °F 40.2 °F 41.0 °F 93% 29.42 in 5.0 mi NE 4.5 mph - N/A Rain Rain
6:45 PM 42.8 °F 37.6 °F 39.2 °F 87% 29.42 in 5.0 mi NNE 8.9 mph - N/A Rain Light Rain
7:15 PM 42.8 °F 38.7 °F 39.2 °F 87% 29.44 in 5.0 mi NNE 6.7 mph - N/A Rain Rain
7:45 PM 41.0 °F 36.5 °F 39.2 °F 93% 29.44 in 5.0 mi NE 6.7 mph - N/A Rain Light Rain
8:15 PM 41.0 °F 36.5 °F 39.2 °F 93% 29.44 in 5.0 mi NNE 6.7 mph - N/A Rain Rain
8:45 PM - - - N/A% - 6.2 mi North 8.9 mph - N/A   Overcast
9:15 PM 41.0 °F 38.1 °F 39.2 °F 93% 29.47 in 6.2 mi ENE 4.5 mph - N/A Rain Light Rain
9:45 PM 41.0 °F 38.1 °F 39.2 °F 93% 29.47 in 6.2 mi ENE 4.5 mph - N/A Rain Light Rain
10:15 PM 41.0 °F 38.1 °F 37.4 °F 87% 29.47 in 6.2 mi NE 4.5 mph - N/A Rain Light Rain
10:45 PM 41.0 °F 38.1 °F 37.4 °F 87% 29.47 in 6.2 mi NE 4.5 mph - N/A Rain Light Rain
11:15 PM 41.0 °F 34.4 °F 33.8 °F 76% 29.47 in 6.2 mi North 11.2 mph - N/A Rain Light Rain
11:45 PM - - - N/A% - 6.2 mi North - - N/A   Overcast